Powrót do katalogu

STARLINK-31465

AktywnyŁącznośćVLEO
NORAD 59012·PAYLOAD·🇺🇸 United States

Wystrzelony Feb 23, 2024 z Vandenberg Space Force Base

Loading…

Następne Przeloty (najbliższe 24 godziny)

TLE

ŚwieżeSource: CelesTrak SupGP

Epoka: Sep 15, 2026, 03:08 UTC

1 59012C 24036Q   26258.13104167 -.00005317  00000+0 -17092-3 0  2585
2 59012  53.1564 277.9581 0001239  85.2521 173.9729 15.31715200    14

Śledź STARLINK-31465 w czasie rzeczywistym z AllMySat

Download on the App Store